パンスターズ彗星

P/2017 G2 ( PanSTARRS )

English version
Home page
Updated on February 13, 2018

---------------------------------------------------------------------

・ プロフィール

発見日 2017年4月3日
発見光度 20.4等
発見者 Pan-STARRS 1 telescope (Haleakala)

・ 写真集

・ 軌道要素

Epoch 2017 June 16.0 TT = JDT 2457920.5
T 2017 June 13.91636 TT                                 MPCW
q   2.8462468            (2000.0)            P               Q
n   0.04244083     Peri.  105.94074     -0.68296377     +0.01123045
a   8.1397954      Node    79.81817     -0.42729340     -0.81710072
e   0.6503294      Incl.   47.90651     +0.59243636     -0.57638554
P  23.22
From 157 observations 2017 Mar. 18-July 26, mean residual 0".4.

・ 光度変化

        m1 = -2.0 + 5 logΔ + 40 log r(t - 70)

---------------------------------------------------------------------

軌道要素はM.P.E.C. 2018-B155に掲載されたものです。
光度グラフはComet for Windowsで作成したものです。

---------------------------------------------------------------------

Copyright(C) Seiichi Yoshida (comet@aerith.net). All rights reserved.